Weather in Noviy Svet

Russia / Republic of Crimea     44°49′41″N   34°54′43″E
temp.,
°C
wind,
m/s
gust,
m/s
humid.,
%
clouds,
%
prec.,
mm/h
press.,
hPa
HPBL,
m
27 february, sat
sat2700:00+9sw912850 0.0 1024299
03:00+9sw912840 0.0 1022325
06:00+9sw912810 0.0 1021294
09:00+9sw912790 0.0 1020325
12:00+9sw911780 0.0 1019293
15:00+9sw811770 0.0 1018231
18:00+9sw45810 0.0 101791
21:00+9ene348136 0.0 101878
28 february, sun
sun2800:00+8nne578592 0.3 1018522
03:00+7n578096 0.3 1019616
06:00+6n797499 0.0 1019820
09:00+6n687250 0.0 1020911
12:00+5nnw677554 0.0 1021909
15:00+6nnw677270 0.1 1021928
18:00+6wnw466964 0.1 10221006
21:00+5nnw576971 0.2 1023837
1 march, mon
mon100:00+4nnw46728 0.0 1023634
03:00+4n347413 0.0 1024456
06:00+4n337196 0.0 1024418
09:00+4nnw237296 0.1 1026411
12:00+4e127689 0.3 1026589
15:00+3ne128594 0.4 1027344
18:00+4nne127298 0.0 1027502
21:00+4ne447799 0.2 1029551
2 march, tue
tue200:00+4nne456742 0.0 1030521
03:00+4n456821 0.0 1030465
06:00+3n34690 0.0 1030412
09:00+4n226613 0.0 1031406
12:00+5sw336111 0.0 1030704
15:00+6sw66665 0.0 1029848
18:00+6sw776941 0.0 1027759
21:00+6wnw226159 0.0 1027394
3 march, wed
wed300:00+6wsw136429 0.0 1027397
03:00+6wsw347122 0.0 1026453
06:00+7wsw23725 0.0 1026376
09:00+6nne23765 0.0 1027197
12:00+7sse32720 0.0 1027294
15:00+8ssw54723 0.0 1027321
18:00+9sw567333 0.0 1026329
21:00+8wsw227836 0.0 102771